GRBBeta
1 60237U 24128C   26247.84902144  .00001226  00000-0  95027-4 0  9996
2 60237  61.9898 296.6675 0029102 152.1233 208.1427 15.07126156118270
Curium One
1 60242U 24128H   26247.80636247  .00002933  00000-0  17418-3 0  9999
2 60242  61.9779 283.5537 0028137 146.6702 213.6173 15.13520638118507
ROBUSTA-3A
1 60243U 24128J   26247.81728808  .00002532  00000-0  15569-3 0  9996
2 60243  61.9860 286.4380 0030047 143.8851 216.4282 15.12633765118466
CatSat
1 60246U 24125J   26247.86671532  .00067396  00000-0  56330-3 0  9992
2 60246  97.1985 101.9901 0014672 236.0216 123.9653 15.69679444119847
AO-123
1 61781U 24199AY  26247.82868686  .00004327  00000-0  12255-3 0  9995
2 61781  97.2872 115.7879 0014278  29.7005 330.5047 15.36713794146158
LASARsat
1 62391U 24247Q   26247.17999666  .00029551  00000-0  49584-3 0  9999
2 62391  44.9718 176.6965 0007695 130.3687 229.7877 15.51300458 95560
CroCube
1 62394U 24247T   26247.83298898  .00034128  00000-0  51644-3 0  9990
2 62394  44.9693 168.7639 0008306 146.2854 213.8569 15.54096712 95714
JINJUSat 1B
1 63210U 25052A   26247.17191552  .00010865  00000-0  31429-3 0  9990
2 63210  97.3879 144.1169 0004315 132.6276 227.5332 15.35782732 82213
NUSHSAT 1
1 63211U 25052B   26247.46308647  .00014291  00000-0  37322-3 0  9993
2 63211  97.3855 145.2832 0004031 131.0558 229.1036 15.38892459 82320
TEVEL2-4
1 63213U 25052D   26246.94808636  .00012834  00000-0  35440-3 0  9990
2 63213  97.3775 143.5693 0003253 139.2354 220.9134 15.37194006 82205
TEVEL2-5
1 63214U 25052E   26247.43425968  .00011768  00000-0  32736-3 0  9999
2 63214  97.3773 143.9804 0003099 140.3764 219.7707 15.36988201 82274
TEVEL2-6
1 63215U 25052F   26246.66710380  .00012994  00000-0  36177-3 0  9994
2 63215  97.3777 143.1954 0002995 142.8392 217.3060 15.36937348 82154
TEVEL2-1
1 63217U 25052H   26247.44224453  .00011443  00000-0  32523-3 0  9993
2 63217  97.3749 143.4974 0002724 152.2275 207.9115 15.36325396 82256
TEVEL2-3
1 63218U 25052J   26246.65196617  .00012403  00000-0  35166-3 0  9999
2 63218  97.3754 142.7390 0002339 150.0265 210.1113 15.36381770 82133
TEVEL2-2
1 63219U 25052K   26247.18142587  .00012236  00000-0  34748-3 0  9995
2 63219  97.3750 143.2401 0002737 154.6183 205.5196 15.36333945 82219
TEVEL2-9
1 63237U 25052AD  26246.93982935  .00010551  00000-0  32156-3 0  9995
2 63237  97.3810 142.1909 0004780 200.9355 159.1692 15.34138426 82099
TEVEL2-7
1 63238U 25052AE  26247.64977951  .00009774  00000-0  30128-3 0  9999
2 63238  97.3813 142.7795 0004794 198.9553 161.1512 15.33797436 82199
TEVEL2-8
1 63239U 25052AF  26247.65871625  .00009999  00000-0  30827-3 0  9997
2 63239  97.3814 142.7634 0004847 199.7899 160.3156 15.33787364 82198
SPIRONE
1 66657U 25274H   26246.76713741  .00001167  00000-0  11519-3 0  9991
2 66657  97.7473 174.9457 0013491 109.7032 250.5645 14.93810836 41955
K-HERO
1 66660U 25274L   26247.55402642  .00001387  00000-0  13453-3 0  9991
2 66660  97.7480 175.9401 0015360 111.7096 248.5761 14.94208572 42087
SNUGLITE-III DURI
1 66661U 25274M   26247.74140367  .00001076  00000-0  10547-3 0  9992
2 66661  97.7479 176.1456 0015919 112.3223 247.9686 14.94217898 42112
SAKHACUBE-CHOLBON
1 67290U 25313AU  26247.13398499  .00006109  00000-0  23889-3 0  9994
2 67290  97.3867 321.2271 0010479  80.5327 279.7095 15.26163933 38010
RS95S (QMR-KWT-2)
1 67291U 25313AV  26247.49284076  .00008903  00000-0  32652-3 0  9991
2 67291  97.3865 321.9571 0009869  77.8393 282.3952 15.28163368 38096
Ten-Koh2
1 68261U 25241B   26246.55793044  .00003260  00000-0  14321-3 0  9999
2 68261  51.6654 306.3832 0007556  42.6075 317.5489 15.24773493 26868
JACK-002
1 68417U 26067B   26246.83887093  .00004554  00000-0  21309-3 0  9999
2 68417  97.4645 204.5366 0002916  46.0726 314.0749 15.20245705 23893
DISCO 2
1 68431U 26067R   26247.33206549  .00004506  00000-0  21159-3 0  9992
2 68431  97.4675 205.0224 0004181  83.5664 276.6047 15.20127753 23968
HADES-SA (SpinnyONE)
1 68446U 26067AG  26247.59761519  .00010973  00000-0  48973-3 0  9997
2 68446  97.4466 204.8751 0007831 140.4162 219.7647 15.21522429 23992
PARUS-6U1
1 68456U 26067AS  26247.82312169  .00003253  00000-0  16214-3 0  9993
2 68456  97.4628 205.0356 0006733 133.2844 226.8953 15.18241903 24018
SAL-E
1 68458U 26067AU  26247.60073014  .00004029  00000-0  19708-3 0  9997
2 68458  97.4553 204.7193 0006749 140.9970 219.1752 15.18761031 23980
FSI-SAT 2
1 68792U 26088A   26247.82557690  .00002982  00000-0  20085-3 0  9998
2 68792  97.5175  35.1676 0014019 190.0933 170.0016 15.07371559 20286
OrigamiSat 2
1 68795U 26088D   26247.37546965  .00008113  00000-0  49736-3 0  9990
2 68795  97.5164  35.1522 0015080 163.1863 196.9870 15.10320518 20243
ARICA 2
1 68796U 26088E   26247.35220448  .00002805  00000-0  18110-3 0  9998
2 68796  97.5172  35.0151 0015933 162.2666 197.9123 15.08969728 20238
WASEDA-SAT-ZERO-II
1 68797U 26088F   26247.86097455  .00002916  00000-0  18582-3 0  9991
2 68797  97.5164  35.5581 0015780 159.8379 200.3477 15.09414216 20313
MANGARO-II-Piscus
1 68798U 26088G   26247.38752027  .00001811  00000-0  11725-3 0  9997
2 68798  97.5176  35.1349 0019216 165.3310 194.8481 15.09264589 20240
CO-128
1 69912U 26156AV  26246.66669709  .00000988  00000-0  10570-3 0  9997
2 69912  97.7491 146.0817 0001767 347.2576  12.8597 14.90918405  8694
MARINA
1 69920U 26156BD  26246.95610418  .00001332  00000-0  13645-3 0  9991
2 69920  97.7458 146.4496 0006685 331.7450  28.3405 14.92128142  8745
IO-86
1 40931U          26199.45381863  .00000000  00000-0  77536-4 0    07
2 40931   6.0006 322.6653 0012733 338.8432 273.6875 14.79294310    03
LILIUM-4                
1 71922C 26067AC  26089.50133053 -.00014632  00000+0 -74472-3 0    04
2 71922  97.4497  49.1617 0004341   5.9603 355.7042 15.16896692    16
